Time,TemperatureF,DewpointF,PressureIn,WindDirection,WindDirectionDegrees,WindSpeedMPH,WindSpeedGustMPH,Humidity,HourlyPrecipIn,Conditions,Clouds,dailyrainin,SoftwareType,DateUTC
2013-04-22 00:05:00,50.1,-22.5,30.31,NE,42,0.0,1.0,4,0.00,,OVC025,0.00,VWS V13.01,2013-04-22 07:05:00,
2013-04-22 00:10:00,50.1,-18.3,30.31,NE,47,0.0,2.0,5,0.00,,OVC025,0.00,VWS V13.01,2013-04-22 07:10:00,
2013-04-22 00:15:00,50.1,-22.5,30.31,NE,47,0.0,1.0,4,0.00,,OVC025,0.00,VWS V13.01,2013-04-22 07:15:00,
2013-04-22 00:20:00,50.1,0.0,30.31,NE,47,0.0,2.0,0,0.00,,OVC025,0.00,VWS V13.01,2013-04-22 07:20:00,
2013-04-22 00:25:00,50.1,-8.9,30.31,NE,47,0.0,2.0,8,0.00,,OVC025,0.00,VWS V13.01,2013-04-22 07:25:00,
2013-04-22 00:30:00,50.1,-27.9,30.31,NE,47,0.0,0.0,3,0.00,,OVC025,0.00,VWS V13.01,2013-04-22 07:30:00,
2013-04-22 00:35:00,50.0,-9.0,30.31,NE,47,0.0,0.0,8,0.00,,OVC025,0.00,VWS V13.01,2013-04-22 07:35:00,
2013-04-22 00:40:00,50.0,0.0,30.31,NE,36,0.0,2.0,0,0.00,,OVC025,0.00,VWS V13.01,2013-04-22 07:40:00,
2013-04-22 00:45:00,49.9,-2.5,30.31,NE,56,0.0,1.0,11,0.00,,OVC025,0.00,VWS V13.01,2013-04-22 07:45:00,
2013-04-22 00:50:00,49.9,-47.2,30.31,NE,56,0.0,1.0,1,0.00,,OVC040,0.00,VWS V13.01,2013-04-22 07:50:00,
2013-04-22 00:55:00,49.8,-18.5,30.31,NE,56,0.0,1.0,5,0.00,,OVC040,0.00,VWS V13.01,2013-04-22 07:55:00,
2013-04-22 01:00:00,49.7,-18.5,30.32,NE,56,0.0,0.0,5,0.00,,OVC040,0.00,VWS V13.01,2013-04-22 08:00:00,
2013-04-22 01:06:00,49.7,-11.9,30.32,NE,56,0.0,0.0,7,0.00,,OVC040,0.00,VWS V13.01,2013-04-22 08:06:00,
2013-04-22 01:11:00,49.6,-28.2,30.32,NE,56,0.0,0.0,3,0.00,,OVC040,0.00,VWS V13.01,2013-04-22 08:11:00,
2013-04-22 01:16:00,49.6,0.0,30.32,NE,56,0.0,0.0,0,0.00,,OVC040,0.00,VWS V13.01,2013-04-22 08:16:00,
2013-04-22 01:21:00,49.6,0.0,30.32,NE,56,0.0,0.0,0,0.00,,OVC040,0.00,VWS V13.01,2013-04-22 08:21:00,
2013-04-22 01:26:00,49.6,0.0,30.32,NE,56,0.0,0.0,0,0.00,,OVC040,0.00,VWS V13.01,2013-04-22 08:26:00,
2013-04-22 01:31:00,49.5,0.0,30.32,NE,56,0.0,0.0,0,0.00,,OVC040,0.00,VWS V13.01,2013-04-22 08:31:00,
2013-04-22 01:36:00,49.4,0.0,30.32,NE,56,0.0,0.0,0,0.00,,OVC040,0.00,VWS V13.01,2013-04-22 08:36:00,
2013-04-22 01:41:00,49.2,0.0,30.32,NE,56,0.0,0.0,0,0.00,,OVC040,0.00,VWS V13.01,2013-04-22 08:41:00,
2013-04-22 01:46:00,49.0,0.0,30.32,NE,56,0.0,1.0,0,0.00,,OVC040,0.00,VWS V13.01,2013-04-22 08:46:00,
2013-04-22 01:51:00,48.8,0.0,30.32,NE,43,1.0,2.0,0,0.00,,OVC042,0.00,VWS V13.01,2013-04-22 08:51:00,
2013-04-22 01:56:00,48.6,0.0,30.32,NE,43,1.0,2.0,0,0.00,,OVC042,0.00,VWS V13.01,2013-04-22 08:56:00,
2013-04-22 02:02:00,48.6,0.0,30.32,NE,43,0.0,0.0,0,0.00,,OVC042,0.00,VWS V13.01,2013-04-22 09:02:00,
2013-04-22 02:07:00,48.3,0.0,30.32,NE,34,0.0,3.0,0,0.00,,OVC042,0.00,VWS V13.01,2013-04-22 09:07:00,
2013-04-22 02:12:00,48.0,0.0,30.32,NNE,32,1.0,4.0,0,0.00,,OVC042,0.00,VWS V13.01,2013-04-22 09:12:00,
2013-04-22 02:17:00,47.9,0.0,30.32,NE,34,1.0,3.0,0,0.00,,OVC042,0.00,VWS V13.01,2013-04-22 09:17:00,
2013-04-22 02:22:00,47.7,0.0,30.32,NE,40,0.0,3.0,0,0.00,,OVC042,0.00,VWS V13.01,2013-04-22 09:22:00,
2013-04-22 02:27:00,47.7,0.0,30.32,NE,40,0.0,3.0,0,0.00,,OVC042,0.00,VWS V13.01,2013-04-22 09:27:00,
2013-04-22 02:32:00,47.6,0.0,30.32,NE,40,0.0,0.0,0,0.00,,OVC042,0.00,VWS V13.01,2013-04-22 09:32:00,
2013-04-22 02:37:00,47.3,0.0,30.32,NE,40,0.0,2.0,0,0.00,,OVC042,0.00,VWS V13.01,2013-04-22 09:37:00,
2013-04-22 02:42:00,47.1,0.0,30.32,NE,40,0.0,2.0,0,0.00,,OVC042,0.00,VWS V13.01,2013-04-22 09:42:00,
2013-04-22 02:47:00,46.9,0.0,30.32,NE,40,0.0,0.0,0,0.00,,OVC042,0.00,VWS V13.01,2013-04-22 09:47:00,
2013-04-22 02:52:00,46.7,0.0,30.32,NE,40,0.0,0.0,0,0.00,,OVC042,0.00,VWS V13.01,2013-04-22 09:52:00,
2013-04-22 02:58:00,46.5,0.0,30.32,NE,40,0.0,0.0,0,0.00,,OVC042,0.00,VWS V13.01,2013-04-22 09:58:00,
2013-04-22 03:03:00,46.3,0.0,30.32,NE,41,0.0,0.0,0,0.00,,OVC042,0.00,VWS V13.01,2013-04-22 10:03:00,
2013-04-22 03:08:00,46.1,0.0,30.32,NE,40,0.0,0.0,0,0.00,,OVC042,0.00,VWS V13.01,2013-04-22 10:08:00,
2013-04-22 03:13:00,45.8,0.0,30.32,NE,40,0.0,0.0,0,0.00,,OVC042,0.00,VWS V13.01,2013-04-22 10:13:00,
2013-04-22 03:18:00,45.6,0.0,30.33,NE,40,0.0,0.0,0,0.00,,OVC042,0.00,VWS V13.01,2013-04-22 10:18:00,
2013-04-22 03:23:00,45.2,0.0,30.33,NE,40,0.0,0.0,0,0.00,,OVC042,0.00,VWS V13.01,2013-04-22 10:23:00,
2013-04-22 03:28:00,45.0,0.0,30.33,NE,40,0.0,0.0,0,0.00,,OVC042,0.00,VWS V13.01,2013-04-22 10:28:00,
2013-04-22 03:33:00,44.8,0.0,30.33,NE,40,0.0,0.0,0,0.00,,OVC042,0.00,VWS V13.01,2013-04-22 10:33:00,
2013-04-22 03:38:00,44.6,0.0,30.33,NE,41,0.0,0.0,0,0.00,,OVC042,0.00,VWS V13.01,2013-04-22 10:38:00,
2013-04-22 03:43:00,44.3,0.0,30.33,NE,40,0.0,0.0,0,0.00,,OVC042,0.00,VWS V13.01,2013-04-22 10:43:00,
2013-04-22 03:48:00,44.1,0.0,30.33,NE,40,0.0,0.0,0,0.00,,OVC042,0.00,VWS V13.01,2013-04-22 10:48:00,
2013-04-22 03:53:00,43.8,0.0,30.33,NE,40,0.0,0.0,0,0.00,,CLR,0.00,VWS V13.01,2013-04-22 10:53:00,
2013-04-22 03:59:00,43.7,0.0,30.33,NE,40,0.0,0.0,0,0.00,,CLR,0.00,VWS V13.01,2013-04-22 10:59:00,
2013-04-22 04:04:00,43.4,0.0,30.33,NE,40,0.0,0.0,0,0.00,,CLR,0.00,VWS V13.01,2013-04-22 11:04:00,
2013-04-22 04:09:00,43.2,0.0,30.33,NE,40,0.0,0.0,0,0.00,,CLR,0.00,VWS V13.01,2013-04-22 11:09:00,
2013-04-22 04:14:00,43.1,0.0,30.33,NE,40,0.0,0.0,0,0.00,,CLR,0.00,VWS V13.01,2013-04-22 11:14:00,
2013-04-22 04:19:00,42.9,0.0,30.33,NE,40,0.0,0.0,0,0.00,,CLR,0.00,VWS V13.01,2013-04-22 11:19:00,
2013-04-22 04:24:00,42.7,0.0,30.33,NE,40,0.0,0.0,0,0.00,,CLR,0.00,VWS V13.01,2013-04-22 11:24:00,
2013-04-22 04:29:00,42.5,0.0,30.34,NE,41,0.0,0.0,0,0.00,,CLR,0.00,VWS V13.01,2013-04-22 11:29:00,
2013-04-22 04:34:00,42.4,0.0,30.34,NE,40,0.0,0.0,0,0.00,,CLR,0.00,VWS V13.01,2013-04-22 11:34:00,
2013-04-22 04:39:00,42.3,0.0,30.34,NE,40,0.0,0.0,0,0.00,,CLR,0.00,VWS V13.01,2013-04-22 11:39:00,
2013-04-22 04:44:00,42.1,0.0,30.34,NE,40,0.0,0.0,0,0.00,,CLR,0.00,VWS V13.01,2013-04-22 11:44:00,
2013-04-22 04:49:00,42.0,0.0,30.34,NE,40,0.0,0.0,0,0.00,,CLR,0.00,VWS V13.01,2013-04-22 11:49:00,
2013-04-22 04:55:00,41.8,0.0,30.34,NE,41,0.0,2.0,0,0.00,,CLR,0.00,VWS V13.01,2013-04-22 11:55:00,
2013-04-22 05:00:00,41.7,0.0,30.34,NE,40,0.0,0.0,0,0.00,,CLR,0.00,VWS V13.01,2013-04-22 12:00:00,
2013-04-22 05:05:00,41.6,0.0,30.34,NE,40,0.0,0.0,0,0.00,,CLR,0.00,VWS V13.01,2013-04-22 12:05:00,
2013-04-22 05:10:00,41.4,0.0,30.34,NE,40,0.0,0.0,0,0.00,,CLR,0.00,VWS V13.01,2013-04-22 12:10:00,
2013-04-22 05:15:00,41.3,0.0,30.34,NE,41,0.0,0.0,0,0.00,,CLR,0.00,VWS V13.01,2013-04-22 12:15:00,
2013-04-22 05:20:00,41.0,0.0,30.34,NE,40,0.0,0.0,0,0.00,,CLR,0.00,VWS V13.01,2013-04-22 12:20:00,
2013-04-22 05:25:00,40.9,0.0,30.34,NE,40,0.0,0.0,0,0.00,,CLR,0.00,VWS V13.01,2013-04-22 12:25:00,
2013-04-22 05:30:00,40.8,0.0,30.34,NE,40,0.0,0.0,0,0.00,,CLR,0.00,VWS V13.01,2013-04-22 12:30:00,
2013-04-22 05:35:00,40.6,0.0,30.34,NE,40,0.0,0.0,0,0.00,,CLR,0.00,VWS V13.01,2013-04-22 12:35:00,
2013-04-22 05:40:00,40.4,0.0,30.34,NE,40,0.0,0.0,0,0.00,,CLR,0.00,VWS V13.01,2013-04-22 12:40:00,
2013-04-22 05:45:00,40.4,0.0,30.34,NE,40,0.0,1.0,0,0.00,,CLR,0.00,VWS V13.01,2013-04-22 12:45:00,
2013-04-22 05:50:00,40.4,0.0,30.34,NE,40,0.0,1.0,0,0.00,,CLR,0.00,VWS V13.01,2013-04-22 12:50:00,
2013-04-22 05:56:00,40.4,0.0,30.34,NE,40,0.0,1.0,0,0.00,,CLR,0.00,VWS V13.01,2013-04-22 12:56:00,
2013-04-22 06:01:00,40.4,0.0,30.34,NE,40,0.0,0.0,0,0.00,,CLR,0.00,VWS V13.01,2013-04-22 13:01:00,
2013-04-22 06:06:00,40.4,0.0,30.35,NE,40,0.0,0.0,0,0.00,,CLR,0.00,VWS V13.01,2013-04-22 13:06:00,
2013-04-22 06:11:00,40.4,0.0,30.35,NE,41,0.0,0.0,0,0.00,,CLR,0.00,VWS V13.01,2013-04-22 13:11:00,
2013-04-22 06:16:00,40.4,0.0,30.35,NE,40,0.0,0.0,0,0.00,,CLR,0.00,VWS V13.01,2013-04-22 13:16:00,
2013-04-22 06:21:00,40.4,0.0,30.35,NE,40,0.0,0.0,0,0.00,,CLR,0.00,VWS V13.01,2013-04-22 13:21:00,
2013-04-22 06:26:00,40.4,0.0,30.35,NE,40,0.0,0.0,0,0.00,,CLR,0.00,VWS V13.01,2013-04-22 13:26:00,
2013-04-22 06:31:00,40.5,0.0,30.35,NE,40,0.0,0.0,0,0.00,,CLR,0.00,VWS V13.01,2013-04-22 13:31:00,
2013-04-22 06:36:00,40.6,0.0,30.35,NE,40,0.0,0.0,0,0.00,,CLR,0.00,VWS V13.01,2013-04-22 13:36:00,
2013-04-22 06:41:00,40.6,0.0,30.35,NE,40,0.0,0.0,0,0.00,,CLR,0.00,VWS V13.01,2013-04-22 13:41:00,
2013-04-22 06:46:00,40.7,0.0,30.35,NE,40,0.0,0.0,0,0.00,,CLR,0.00,VWS V13.01,2013-04-22 13:46:00,
2013-04-22 06:51:00,40.8,0.0,30.35,NE,40,0.0,0.0,0,0.00,,FEW025,0.00,VWS V13.01,2013-04-22 13:51:00,
2013-04-22 06:57:00,40.8,0.0,30.35,NE,40,0.0,0.0,0,0.00,,FEW025,0.00,VWS V13.01,2013-04-22 13:57:00,
2013-04-22 07:02:00,40.9,0.0,30.35,NE,40,0.0,0.0,0,0.00,,FEW025,0.00,VWS V13.01,2013-04-22 14:02:00,
2013-04-22 07:07:00,40.9,0.0,30.36,NE,40,0.0,0.0,0,0.00,,FEW025,0.00,VWS V13.01,2013-04-22 14:07:00,
2013-04-22 07:12:00,41.0,0.0,30.36,NE,40,0.0,0.0,0,0.00,,FEW025,0.00,VWS V13.01,2013-04-22 14:12:00,
2013-04-22 07:17:00,41.1,0.0,30.36,NE,40,0.0,0.0,0,0.00,,FEW025,0.00,VWS V13.01,2013-04-22 14:17:00,
2013-04-22 07:22:00,41.2,0.0,30.36,NE,40,0.0,0.0,0,0.00,,FEW025,0.00,VWS V13.01,2013-04-22 14:22:00,
2013-04-22 07:27:00,41.2,0.0,30.36,ENE,75,0.0,0.0,0,0.00,,FEW025,0.00,VWS V13.01,2013-04-22 14:27:00,
2013-04-22 07:32:00,41.4,0.0,30.36,ENE,75,0.0,0.0,0,0.00,,FEW025,0.00,VWS V13.01,2013-04-22 14:32:00,
2013-04-22 07:37:00,41.5,0.0,30.36,ENE,78,0.0,0.0,0,0.00,,FEW025,0.00,VWS V13.01,2013-04-22 14:37:00,
2013-04-22 07:42:00,41.6,0.0,30.36,ENE,78,1.0,2.0,0,0.00,,FEW025,0.00,VWS V13.01,2013-04-22 14:42:00,
2013-04-22 07:47:00,41.5,0.0,30.36,ENE,78,1.0,1.0,0,0.00,,FEW025,0.00,VWS V13.01,2013-04-22 14:47:00,
2013-04-22 07:52:00,41.5,0.0,30.36,ENE,78,1.0,2.0,0,0.00,,FEW020,0.00,VWS V13.01,2013-04-22 14:52:00,
2013-04-22 07:58:00,41.4,0.0,30.37,ENE,61,0.0,2.0,0,0.00,,FEW020,0.00,VWS V13.01,2013-04-22 14:58:00,
2013-04-22 08:03:00,41.3,0.0,30.37,NE,53,0.0,2.0,0,0.00,,FEW020,0.00,VWS V13.01,2013-04-22 15:03:00,
2013-04-22 08:08:00,41.3,0.0,30.37,NE,53,0.0,2.0,0,0.00,,FEW020,0.00,VWS V13.01,2013-04-22 15:08:00,
2013-04-22 08:13:00,41.2,0.0,30.37,NE,53,0.0,2.0,0,0.00,,FEW020,0.00,VWS V13.01,2013-04-22 15:13:00,
2013-04-22 08:18:00,41.1,0.0,30.37,NE,53,0.0,0.0,0,0.00,,FEW020,0.00,VWS V13.01,2013-04-22 15:18:00,
2013-04-22 08:23:00,41.1,0.0,30.37,NE,53,0.0,0.0,0,0.00,,FEW020,0.00,VWS V13.01,2013-04-22 15:23:00,
2013-04-22 08:28:00,41.2,0.0,30.37,NE,53,0.0,0.0,0,0.00,,FEW020,0.00,VWS V13.01,2013-04-22 15:28:00,
2013-04-22 08:33:00,41.3,0.0,30.37,NE,53,0.0,0.0,0,0.00,,FEW020,0.00,VWS V13.01,2013-04-22 15:33:00,
2013-04-22 08:38:00,41.4,0.0,30.36,NE,53,0.0,0.0,0,0.00,,FEW020,0.00,VWS V13.01,2013-04-22 15:38:00,
2013-04-22 08:43:00,41.6,0.0,30.37,NE,53,0.0,0.0,0,0.00,,FEW020,0.00,VWS V13.01,2013-04-22 15:43:00,
2013-04-22 08:48:00,42.2,0.0,30.36,NE,53,0.0,0.0,0,0.00,,FEW020,0.00,VWS V13.01,2013-04-22 15:48:00,
2013-04-22 08:54:00,42.5,0.0,30.36,NE,53,0.0,0.0,0,0.00,,OVC011,0.00,VWS V13.01,2013-04-22 15:54:00,
2013-04-22 08:59:00,43.0,0.0,30.36,NE,53,0.0,0.0,0,0.00,,OVC011,0.00,VWS V13.01,2013-04-22 15:59:00,
2013-04-22 09:04:00,43.9,0.0,30.36,NE,53,0.0,0.0,0,0.00,,OVC011,0.00,VWS V13.01,2013-04-22 16:04:00,
2013-04-22 09:09:00,44.8,0.0,30.36,NE,53,0.0,0.0,0,0.00,,OVC011,0.00,VWS V13.01,2013-04-22 16:09:00,
2013-04-22 09:14:00,45.9,0.0,30.36,NE,53,0.0,0.0,0,0.00,,OVC011,0.00,VWS V13.01,2013-04-22 16:14:00,
2013-04-22 09:19:00,46.8,0.0,30.36,NE,53,0.0,0.0,0,0.00,,OVC011,0.00,VWS V13.01,2013-04-22 16:19:00,
2013-04-22 09:24:00,47.5,0.0,30.36,SE,130,0.0,5.0,0,0.00,,OVC011,0.00,VWS V13.01,2013-04-22 16:24:00,
2013-04-22 09:29:00,48.1,0.0,30.35,SE,131,0.0,0.0,0,0.00,,OVC011,0.00,VWS V13.01,2013-04-22 16:29:00,
2013-04-22 09:34:00,48.5,0.0,30.35,SE,125,0.0,4.0,0,0.00,,OVC011,0.00,VWS V13.01,2013-04-22 16:34:00,
2013-04-22 09:39:00,49.2,-15.4,30.35,North,5,4.0,4.0,6,0.00,,OVC011,0.00,VWS V13.01,2013-04-22 16:39:00,
2013-04-22 09:44:00,49.8,33.8,30.35,East,82,3.0,5.0,54,0.00,,OVC011,0.00,VWS V13.01,2013-04-22 16:44:00,
2013-04-22 09:49:00,50.8,35.7,30.35,NE,35,4.0,7.0,56,0.00,,OVC011,0.00,VWS V13.01,2013-04-22 16:49:00,
2013-04-22 09:55:00,51.8,40.4,30.35,ENE,77,5.0,7.0,65,0.00,,OVC011,0.00,VWS V13.01,2013-04-22 16:55:00,
2013-04-22 10:00:00,52.4,41.8,30.35,NE,50,5.0,5.0,67,0.00,,OVC011,0.00,VWS V13.01,2013-04-22 17:00:00,
2013-04-22 10:05:00,53.0,42.0,30.35,NNE,22,2.0,6.0,66,0.00,,OVC011,0.00,VWS V13.01,2013-04-22 17:05:00,
2013-04-22 10:10:00,53.8,43.1,30.35,NE,36,3.0,10.0,67,0.00,,OVC011,0.00,VWS V13.01,2013-04-22 17:10:00,
2013-04-22 10:15:00,54.3,43.6,30.36,NE,36,5.0,6.0,67,0.00,,OVC011,0.00,VWS V13.01,2013-04-22 17:15:00,
2013-04-22 10:20:00,54.6,43.5,30.36,NE,53,3.0,7.0,66,0.00,,OVC011,0.00,VWS V13.01,2013-04-22 17:20:00,
2013-04-22 10:25:00,55.0,43.9,30.36,NE,42,9.0,12.0,66,0.00,,OVC011,0.00,VWS V13.01,2013-04-22 17:25:00,
2013-04-22 10:30:00,55.1,43.6,30.35,NE,47,6.0,9.0,65,0.00,,OVC011,0.00,VWS V13.01,2013-04-22 17:30:00,
2013-04-22 10:35:00,55.6,44.0,30.35,NNE,31,3.0,11.0,65,0.00,,OVC011,0.00,VWS V13.01,2013-04-22 17:35:00,
2013-04-22 10:40:00,55.9,44.3,30.35,ENE,73,5.0,11.0,65,0.00,,OVC011,0.00,VWS V13.01,2013-04-22 17:40:00,
2013-04-22 10:46:00,56.2,44.2,30.35,NE,44,3.0,7.0,64,0.00,,OVC011,0.00,VWS V13.01,2013-04-22 17:46:00,
2013-04-22 10:51:00,56.7,44.3,30.35,East,96,3.0,7.0,63,0.00,,BKN015,0.00,VWS V13.01,2013-04-22 17:51:00,
2013-04-22 10:56:00,56.9,44.0,30.35,NE,37,1.0,10.0,62,0.00,,BKN015,0.00,VWS V13.01,2013-04-22 17:56:00,
2013-04-22 11:01:00,57.7,45.2,30.35,NE,36,2.0,4.0,63,0.00,,BKN015,0.00,VWS V13.01,2013-04-22 18:01:00,
2013-04-22 11:06:00,58.0,43.3,30.35,ESE,107,1.0,13.0,58,0.00,,BKN015,0.00,VWS V13.01,2013-04-22 18:06:00,
2013-04-22 11:11:00,58.6,46.1,30.34,East,81,0.0,13.0,63,0.00,,BKN015,0.00,VWS V13.01,2013-04-22 18:11:00,
2013-04-22 11:16:00,58.7,44.4,30.35,NE,39,3.0,13.0,59,0.00,,BKN015,0.00,VWS V13.01,2013-04-22 18:16:00,
2013-04-22 11:21:00,59.2,44.5,30.35,NE,53,0.0,13.0,58,0.00,,BKN015,0.00,VWS V13.01,2013-04-22 18:21:00,
2013-04-22 11:26:00,59.4,43.2,30.35,NNE,13,2.0,14.0,55,0.00,,BKN015,0.00,VWS V13.01,2013-04-22 18:26:00,
2013-04-22 11:31:00,59.7,43.5,30.35,NE,42,3.0,10.0,55,0.00,,BKN015,0.00,VWS V13.01,2013-04-22 18:31:00,
2013-04-22 11:36:00,59.8,42.7,30.34,NE,52,4.0,10.0,53,0.00,,BKN015,0.00,VWS V13.01,2013-04-22 18:36:00,
2013-04-22 11:42:00,60.0,44.3,30.34,NE,55,7.0,10.0,56,0.00,,BKN015,0.00,VWS V13.01,2013-04-22 18:42:00,
2013-04-22 11:47:00,60.2,41.0,30.34,NE,56,12.0,16.0,49,0.00,,BKN015,0.00,VWS V13.01,2013-04-22 18:47:00,
2013-04-22 11:52:00,60.2,42.5,30.34,NNE,30,1.0,16.0,52,0.00,,SCT015,0.00,VWS V13.01,2013-04-22 18:52:00,
2013-04-22 11:57:00,60.9,41.1,30.34,NNE,15,4.0,16.0,48,0.00,,SCT015,0.00,VWS V13.01,2013-04-22 18:57:00,
2013-04-22 12:02:00,61.2,41.4,30.34,NE,35,0.0,6.0,48,0.00,,SCT015,0.00,VWS V13.01,2013-04-22 19:02:00,
2013-04-22 12:07:00,61.3,43.0,30.34,NNW,327,7.0,11.0,51,0.00,,SCT015,0.00,VWS V13.01,2013-04-22 19:07:00,
2013-04-22 12:12:00,61.3,42.0,30.34,NE,36,0.0,11.0,49,0.00,,SCT015,0.00,VWS V13.01,2013-04-22 19:12:00,
2013-04-22 12:17:00,61.2,38.5,30.34,SW,234,3.0,14.0,43,0.00,,SCT015,0.00,VWS V13.01,2013-04-22 19:17:00,
2013-04-22 12:22:00,61.6,41.7,30.34,ENE,57,5.0,14.0,48,0.00,,SCT015,0.00,VWS V13.01,2013-04-22 19:22:00,
2013-04-22 12:27:00,61.7,39.6,30.34,NE,49,7.0,14.0,44,0.00,,SCT015,0.00,VWS V13.01,2013-04-22 19:27:00,
2013-04-22 12:32:00,61.9,42.0,30.34,SE,125,1.0,14.0,48,0.00,,SCT015,0.00,VWS V13.01,2013-04-22 19:32:00,
2013-04-22 12:38:00,61.9,39.2,30.34,NE,42,2.0,14.0,43,0.00,,SCT015,0.00,VWS V13.01,2013-04-22 19:38:00,
2013-04-22 12:43:00,61.9,37.3,30.34,ESE,114,1.0,14.0,40,0.00,,SCT015,0.00,VWS V13.01,2013-04-22 19:43:00,
2013-04-22 12:48:00,62.0,38.7,30.33,NW,317,2.0,11.0,42,0.00,,SCT015,0.00,VWS V13.01,2013-04-22 19:48:00,
2013-04-22 12:53:00,62.0,36.8,30.33,NNE,30,1.0,22.0,39,0.00,,FEW015,0.00,VWS V13.01,2013-04-22 19:53:00,
2013-04-22 12:58:00,62.4,40.2,30.33,NNE,12,4.0,22.0,44,0.00,,FEW015,0.00,VWS V13.01,2013-04-22 19:58:00,
2013-04-22 13:03:00,62.5,37.9,30.33,NNE,17,6.0,14.0,40,0.00,,FEW015,0.00,VWS V13.01,2013-04-22 20:03:00,
2013-04-22 13:08:00,62.5,35.9,30.33,ENE,57,3.0,14.0,37,0.00,,FEW015,0.00,VWS V13.01,2013-04-22 20:08:00,
2013-04-22 13:13:00,62.5,35.2,30.32,WSW,253,2.0,14.0,36,0.00,,FEW015,0.00,VWS V13.01,2013-04-22 20:13:00,
2013-04-22 13:18:00,62.9,37.6,30.32,NE,42,6.0,14.0,39,0.00,,FEW015,0.00,VWS V13.01,2013-04-22 20:18:00,
2013-04-22 13:23:00,63.5,38.1,30.32,WNW,302,1.0,14.0,39,0.00,,FEW015,0.00,VWS V13.01,2013-04-22 20:23:00,
2013-04-22 13:28:00,63.8,38.4,30.32,ENE,60,1.0,14.0,39,0.00,,FEW015,0.00,VWS V13.01,2013-04-22 20:28:00,
2013-04-22 13:33:00,63.4,37.4,30.32,NE,51,7.0,17.0,38,0.00,,FEW015,0.00,VWS V13.01,2013-04-22 20:33:00,
2013-04-22 13:39:00,63.2,34.4,30.32,North,355,6.0,17.0,34,0.00,,FEW015,0.00,VWS V13.01,2013-04-22 20:39:00,
2013-04-22 13:44:00,63.4,36.0,30.32,NE,44,6.0,17.0,36,0.00,,FEW015,0.00,VWS V13.01,2013-04-22 20:44:00,
2013-04-22 13:49:00,63.7,35.6,30.32,NE,38,7.0,12.0,35,0.00,,FEW015,0.00,VWS V13.01,2013-04-22 20:49:00,
2013-04-22 13:54:00,63.6,38.2,30.32,NE,49,7.0,18.0,39,0.00,,FEW025,0.00,VWS V13.01,2013-04-22 20:54:00,
2013-04-22 13:59:00,64.0,38.6,30.32,ENE,66,2.0,3.0,39,0.00,,FEW025,0.00,VWS V13.01,2013-04-22 20:59:00,
2013-04-22 14:04:00,64.3,37.5,30.32,NNE,31,3.0,11.0,37,0.00,,FEW025,0.00,VWS V13.01,2013-04-22 21:04:00,
2013-04-22 14:09:00,64.4,34.7,30.32,ENE,59,9.0,15.0,33,0.00,,FEW025,0.00,VWS V13.01,2013-04-22 21:09:00,
2013-04-22 14:14:00,64.4,37.6,30.32,ENE,59,4.0,5.0,37,0.00,,FEW025,0.00,VWS V13.01,2013-04-22 21:14:00,
2013-04-22 14:19:00,64.4,35.5,30.32,NNE,31,4.0,12.0,34,0.00,,FEW025,0.00,VWS V13.01,2013-04-22 21:19:00,
2013-04-22 14:24:00,64.7,39.2,30.32,North,360,3.0,12.0,39,0.00,,FEW025,0.00,VWS V13.01,2013-04-22 21:24:00,
2013-04-22 14:29:00,64.8,35.0,30.31,South,172,1.0,3.0,33,0.00,,FEW025,0.00,VWS V13.01,2013-04-22 21:29:00,
2013-04-22 14:34:00,64.7,38.5,30.32,NNW,343,1.0,6.0,38,0.00,,FEW025,0.00,VWS V13.01,2013-04-22 21:34:00,
2013-04-22 14:40:00,64.8,37.2,30.31,ENE,77,4.0,9.0,36,0.00,,FEW025,0.00,VWS V13.01,2013-04-22 21:40:00,
2013-04-22 14:45:00,64.9,39.4,30.31,NE,52,5.0,13.0,39,0.00,,FEW025,0.00,VWS V13.01,2013-04-22 21:45:00,
2013-04-22 14:50:00,65.1,38.2,30.31,NE,36,6.0,13.0,37,0.00,,FEW035,0.00,VWS V13.01,2013-04-22 21:50:00,
2013-04-22 14:55:00,65.0,38.8,30.31,NNE,26,7.0,13.0,38,0.00,,FEW035,0.00,VWS V13.01,2013-04-22 21:55:00,
2013-04-22 15:00:00,65.2,36.9,30.31,NNW,329,3.0,4.0,35,0.00,,FEW035,0.00,VWS V13.01,2013-04-22 22:00:00,
2013-04-22 15:05:00,65.7,40.1,30.31,North,360,4.0,7.0,39,0.00,,FEW035,0.00,VWS V13.01,2013-04-22 22:05:00,
2013-04-22 15:10:00,66.0,38.3,30.31,NE,37,6.0,7.0,36,0.00,,FEW035,0.00,VWS V13.01,2013-04-22 22:10:00,
2013-04-22 15:15:00,65.9,38.2,30.30,SSW,213,4.0,6.0,36,0.00,,FEW035,0.00,VWS V13.01,2013-04-22 22:15:00,
2013-04-22 15:20:00,65.7,38.0,30.30,NE,44,6.0,10.0,36,0.00,,FEW035,0.00,VWS V13.01,2013-04-22 22:20:00,
2013-04-22 15:25:00,65.7,39.4,30.30,NE,51,1.0,12.0,38,0.00,,FEW035,0.00,VWS V13.01,2013-04-22 22:25:00,
2013-04-22 15:30:00,66.3,41.9,30.30,South,178,0.0,2.0,41,0.00,,FEW035,0.00,VWS V13.01,2013-04-22 22:30:00,
2013-04-22 15:36:00,66.7,41.6,30.30,NNE,21,0.0,4.0,40,0.00,,FEW035,0.00,VWS V13.01,2013-04-22 22:36:00,
2013-04-22 15:41:00,66.5,40.8,30.30,NNW,327,1.0,11.0,39,0.00,,FEW035,0.00,VWS V13.01,2013-04-22 22:41:00,
2013-04-22 15:46:00,66.4,39.4,30.30,NE,45,6.0,8.0,37,0.00,,FEW035,0.00,VWS V13.01,2013-04-22 22:46:00,
2013-04-22 15:51:00,65.9,37.5,30.30,SE,142,1.0,13.0,35,0.00,,FEW040,0.00,VWS V13.01,2013-04-22 22:51:00,
2013-04-22 15:56:00,66.1,43.0,30.30,NNE,15,0.0,13.0,43,0.00,,FEW040,0.00,VWS V13.01,2013-04-22 22:56:00,
2013-04-22 16:01:00,65.8,40.2,30.30,NW,316,2.0,8.0,39,0.00,,FEW040,0.00,VWS V13.01,2013-04-22 23:01:00,
2013-04-22 16:06:00,65.1,36.8,30.30,NNE,23,9.0,14.0,35,0.00,,FEW040,0.00,VWS V13.01,2013-04-22 23:06:00,
2013-04-22 16:11:00,65.4,39.2,30.30,ENE,75,0.0,14.0,38,0.00,,FEW040,0.00,VWS V13.01,2013-04-22 23:11:00,
2013-04-22 16:16:00,65.7,37.3,30.29,ENE,60,9.0,15.0,35,0.00,,FEW040,0.00,VWS V13.01,2013-04-22 23:16:00,
2013-04-22 16:21:00,65.1,40.2,30.29,NNW,332,2.0,15.0,40,0.00,,FEW040,0.00,VWS V13.01,2013-04-22 23:21:00,
2013-04-22 16:26:00,64.8,39.9,30.30,NE,51,6.0,15.0,40,0.00,,FEW040,0.00,VWS V13.01,2013-04-22 23:26:00,
2013-04-22 16:31:00,64.9,38.0,30.29,NE,41,2.0,12.0,37,0.00,,FEW040,0.00,VWS V13.01,2013-04-22 23:31:00,
2013-04-22 16:37:00,64.7,38.5,30.29,NE,51,6.0,16.0,38,0.00,,FEW040,0.00,VWS V13.01,2013-04-22 23:37:00,
2013-04-22 16:42:00,64.5,37.7,30.29,NW,325,1.0,16.0,37,0.00,,FEW040,0.00,VWS V13.01,2013-04-22 23:42:00,
2013-04-22 16:47:00,64.0,37.2,30.28,NE,46,5.0,10.0,37,0.00,,FEW040,0.00,VWS V13.01,2013-04-22 23:47:00,
2013-04-22 16:52:00,63.5,40.6,30.29,ENE,57,6.0,11.0,43,0.00,,CLR,0.00,VWS V13.01,2013-04-22 23:52:00,
2013-04-22 16:57:00,64.0,37.2,30.28,NNE,30,2.0,17.0,37,0.00,,CLR,0.00,VWS V13.01,2013-04-22 23:57:00,
2013-04-22 17:02:00,63.6,41.9,30.28,NNW,344,4.0,4.0,45,0.00,,CLR,0.00,VWS V13.01,2013-04-23 00:02:00,
2013-04-22 17:07:00,63.3,39.8,30.28,NNW,333,1.0,6.0,42,0.00,,CLR,0.00,VWS V13.01,2013-04-23 00:07:00,
2013-04-22 17:12:00,63.0,37.7,30.28,WNW,301,0.0,6.0,39,0.00,,CLR,0.00,VWS V13.01,2013-04-23 00:12:00,
2013-04-22 17:17:00,62.5,42.6,30.28,NNE,21,3.0,6.0,48,0.00,,CLR,0.00,VWS V13.01,2013-04-23 00:17:00,
2013-04-22 17:22:00,62.2,40.6,30.28,North,5,2.0,10.0,45,0.00,,CLR,0.00,VWS V13.01,2013-04-23 00:22:00,
2013-04-22 17:28:00,61.8,41.4,30.28,NNW,344,2.0,10.0,47,0.00,,CLR,0.00,VWS V13.01,2013-04-23 00:28:00,
2013-04-22 17:33:00,61.3,40.9,30.28,NNE,12,1.0,4.0,47,0.00,,CLR,0.00,VWS V13.01,2013-04-23 00:33:00,
2013-04-22 17:38:00,61.2,38.5,30.28,NNW,333,0.0,12.0,43,0.00,,CLR,0.00,VWS V13.01,2013-04-23 00:38:00,
2013-04-22 17:43:00,61.2,39.1,30.28,WNW,293,1.0,12.0,44,0.00,,CLR,0.00,VWS V13.01,2013-04-23 00:43:00,
2013-04-22 17:48:00,61.0,41.2,30.28,NNW,331,3.0,9.0,48,0.00,,CLR,0.00,VWS V13.01,2013-04-23 00:48:00,
2013-04-22 17:53:00,61.0,39.0,30.28,North,355,0.0,9.0,44,0.00,,CLR,0.00,VWS V13.01,2013-04-23 00:53:00,
2013-04-22 17:58:00,60.8,42.1,30.28,SSW,211,0.0,9.0,50,0.00,,CLR,0.00,VWS V13.01,2013-04-23 00:58:00,
2013-04-22 18:03:00,60.6,43.4,30.28,West,265,0.0,5.0,53,0.00,,CLR,0.00,VWS V13.01,2013-04-23 01:03:00,
2013-04-22 18:08:00,60.2,41.0,30.28,NE,55,5.0,5.0,49,0.00,,CLR,0.00,VWS V13.01,2013-04-23 01:08:00,
2013-04-22 18:13:00,60.0,41.3,30.28,NW,321,0.0,5.0,50,0.00,,CLR,0.00,VWS V13.01,2013-04-23 01:13:00,
2013-04-22 18:18:00,59.9,43.2,30.28,NW,321,0.0,1.0,54,0.00,,CLR,0.00,VWS V13.01,2013-04-23 01:18:00,
2013-04-22 18:24:00,59.4,45.1,30.28,NW,321,0.0,2.0,59,0.00,,CLR,0.00,VWS V13.01,2013-04-23 01:24:00,
2013-04-22 18:29:00,58.7,44.9,30.29,NW,321,0.0,2.0,60,0.00,,CLR,0.00,VWS V13.01,2013-04-23 01:29:00,
2013-04-22 18:34:00,58.3,44.5,30.29,NW,315,0.0,1.0,60,0.00,,CLR,0.00,VWS V13.01,2013-04-23 01:34:00,
2013-04-22 18:39:00,58.0,44.6,30.29,NW,315,0.0,1.0,61,0.00,,CLR,0.00,VWS V13.01,2013-04-23 01:39:00,
2013-04-22 18:44:00,57.7,45.2,30.29,NW,315,0.0,0.0,63,0.00,,CLR,0.00,VWS V13.01,2013-04-23 01:44:00,
2013-04-22 18:49:00,57.2,44.3,30.29,NW,315,0.0,0.0,62,0.00,,CLR,0.00,VWS V13.01,2013-04-23 01:49:00,
2013-04-22 18:54:00,56.8,43.9,30.29,NW,315,0.0,0.0,62,0.00,,CLR,0.00,VWS V13.01,2013-04-23 01:54:00,
2013-04-22 18:59:00,56.4,44.0,30.29,NW,315,0.0,0.0,63,0.00,,CLR,0.00,VWS V13.01,2013-04-23 01:59:00,
2013-04-22 19:04:00,56.0,43.2,30.28,NW,315,0.0,3.0,62,0.00,,CLR,0.00,VWS V13.01,2013-04-23 02:04:00,
2013-04-22 19:09:00,55.7,41.2,30.29,NW,315,0.0,3.0,58,0.00,,CLR,0.00,VWS V13.01,2013-04-23 02:09:00,
2013-04-22 19:15:00,55.4,40.0,30.29,NW,315,0.0,0.0,56,0.00,,CLR,0.00,VWS V13.01,2013-04-23 02:15:00,
2013-04-22 19:20:00,55.0,41.8,30.29,NW,315,0.0,0.0,61,0.00,,CLR,0.00,VWS V13.01,2013-04-23 02:20:00,
2013-04-22 19:25:00,54.7,41.1,30.29,NW,315,0.0,1.0,60,0.00,,CLR,0.00,VWS V13.01,2013-04-23 02:25:00,
2013-04-22 19:30:00,54.5,36.3,30.29,NW,315,0.0,0.0,50,0.00,,CLR,0.00,VWS V13.01,2013-04-23 02:30:00,
2013-04-22 19:35:00,54.1,39.7,30.30,NW,315,0.0,0.0,58,0.00,,CLR,0.00,VWS V13.01,2013-04-23 02:35:00,
2013-04-22 19:40:00,53.9,31.4,30.30,NW,315,0.0,0.0,42,0.00,,CLR,0.00,VWS V13.01,2013-04-23 02:40:00,
2013-04-22 19:45:00,53.5,35.8,30.30,NW,315,0.0,0.0,51,0.00,,CLR,0.00,VWS V13.01,2013-04-23 02:45:00,
2013-04-22 19:50:00,53.2,31.9,30.29,NW,315,0.0,0.0,44,0.00,,CLR,0.00,VWS V13.01,2013-04-23 02:50:00,
2013-04-22 19:55:00,52.9,25.3,30.30,NW,315,0.0,0.0,34,0.00,,CLR,0.00,VWS V13.01,2013-04-23 02:55:00,
2013-04-22 20:00:00,52.4,32.2,30.30,NW,315,0.0,0.0,46,0.00,,CLR,0.00,VWS V13.01,2013-04-23 03:00:00,
2013-04-22 20:05:00,52.1,27.9,30.30,NW,315,0.0,0.0,39,0.00,,CLR,0.00,VWS V13.01,2013-04-23 03:05:00,
2013-04-22 20:11:00,51.7,23.5,30.30,NW,315,0.0,0.0,33,0.00,,CLR,0.00,VWS V13.01,2013-04-23 03:11:00,
2013-04-22 20:16:00,51.4,16.8,30.30,NW,315,0.0,0.0,25,0.00,,CLR,0.00,VWS V13.01,2013-04-23 03:16:00,
2013-04-22 20:21:00,51.0,10.2,30.31,NW,315,0.0,0.0,19,0.00,,CLR,0.00,VWS V13.01,2013-04-23 03:21:00,
2013-04-22 20:26:00,50.6,7.4,30.31,NW,315,0.0,0.0,17,0.00,,CLR,0.00,VWS V13.01,2013-04-23 03:26:00,
2013-04-22 20:31:00,50.3,1.3,30.32,NW,315,0.0,0.0,13,0.00,,CLR,0.00,VWS V13.01,2013-04-23 03:31:00,
2013-04-22 20:36:00,49.9,-28.0,30.32,NW,315,0.0,0.0,3,0.00,,CLR,0.00,VWS V13.01,2013-04-23 03:36:00,
2013-04-22 20:41:00,49.6,0.0,30.32,NW,315,0.0,0.0,0,0.00,,CLR,0.00,VWS V13.01,2013-04-23 03:41:00,
2013-04-22 20:46:00,49.2,0.0,30.32,NW,315,0.0,0.0,0,0.00,,CLR,0.00,VWS V13.01,2013-04-23 03:46:00,
2013-04-22 20:51:00,48.9,0.0,30.33,NW,315,0.0,0.0,0,0.00,,CLR,0.00,VWS V13.01,2013-04-23 03:51:00,
2013-04-22 20:57:00,48.5,0.0,30.33,NW,315,0.0,0.0,0,0.00,,CLR,0.00,VWS V13.01,2013-04-23 03:57:00,
2013-04-22 21:01:00,48.3,0.0,30.33,NW,315,0.0,0.0,0,0.00,,CLR,0.00,VWS V13.01,2013-04-23 04:01:00,
2013-04-22 21:02:00,48.2,0.0,30.33,NW,315,0.0,0.0,0,0.00,,CLR,0.00,VWS V13.01,2013-04-23 04:02:00,
2013-04-22 21:03:00,48.1,0.0,30.33,NW,315,0.0,0.0,0,0.00,,CLR,0.00,VWS V13.01,2013-04-23 04:03:00,
2013-04-22 21:09:00,47.9,0.0,30.33,NW,315,0.0,2.0,0,0.00,,CLR,0.00,VWS V13.01,2013-04-23 04:09:00,
2013-04-22 21:14:00,47.7,0.0,30.33,NW,315,0.0,2.0,0,0.00,,CLR,0.00,VWS V13.01,2013-04-23 04:14:00,
2013-04-22 21:19:00,47.5,0.0,30.33,WSW,245,0.0,2.0,0,0.00,,CLR,0.00,VWS V13.01,2013-04-23 04:19:00,
2013-04-22 21:24:00,47.2,0.0,30.33,WSW,245,0.0,2.0,0,0.00,,CLR,0.00,VWS V13.01,2013-04-23 04:24:00,
2013-04-22 21:29:00,47.0,0.0,30.33,WSW,245,0.0,0.0,0,0.00,,CLR,0.00,VWS V13.01,2013-04-23 04:29:00,
2013-04-22 21:34:00,46.8,0.0,30.34,WSW,245,0.0,0.0,0,0.00,,CLR,0.00,VWS V13.01,2013-04-23 04:34:00,
2013-04-22 21:39:00,46.6,0.0,30.34,WSW,245,0.0,0.0,0,0.00,,CLR,0.00,VWS V13.01,2013-04-23 04:39:00,
2013-04-22 21:44:00,46.4,0.0,30.34,WSW,245,0.0,0.0,0,0.00,,CLR,0.00,VWS V13.01,2013-04-23 04:44:00,
2013-04-22 21:49:00,46.2,0.0,30.34,WSW,245,0.0,0.0,0,0.00,,CLR,0.00,VWS V13.01,2013-04-23 04:49:00,
2013-04-22 21:54:00,45.9,0.0,30.34,SW,224,1.0,2.0,0,0.00,,CLR,0.00,VWS V13.01,2013-04-23 04:54:00,
2013-04-22 22:00:00,45.7,0.0,30.35,SW,224,0.0,0.0,0,0.00,,CLR,0.00,VWS V13.01,2013-04-23 05:00:00,
2013-04-22 22:05:00,45.5,0.0,30.35,SW,224,0.0,0.0,0,0.00,,CLR,0.00,VWS V13.01,2013-04-23 05:05:00,
2013-04-22 22:10:00,45.3,0.0,30.34,SW,224,0.0,0.0,0,0.00,,CLR,0.00,VWS V13.01,2013-04-23 05:10:00,
2013-04-22 22:15:00,45.1,0.0,30.34,SW,224,0.0,0.0,0,0.00,,CLR,0.00,VWS V13.01,2013-04-23 05:15:00,
2013-04-22 22:20:00,44.9,0.0,30.34,SW,224,0.0,2.0,0,0.00,,CLR,0.00,VWS V13.01,2013-04-23 05:20:00,
2013-04-22 22:25:00,44.7,0.0,30.34,SW,224,0.0,2.0,0,0.00,,CLR,0.00,VWS V13.01,2013-04-23 05:25:00,
2013-04-22 22:30:00,44.6,0.0,30.34,SW,224,2.0,2.0,0,0.00,,CLR,0.00,VWS V13.01,2013-04-23 05:30:00,
2013-04-22 22:35:00,44.5,0.0,30.34,SW,217,1.0,3.0,0,0.00,,CLR,0.00,VWS V13.01,2013-04-23 05:35:00,
2013-04-22 22:40:00,44.5,0.0,30.34,SW,217,0.0,3.0,0,0.00,,CLR,0.00,VWS V13.01,2013-04-23 05:40:00,
2013-04-22 22:45:00,44.3,0.0,30.34,SW,217,1.0,3.0,0,0.00,,CLR,0.00,VWS V13.01,2013-04-23 05:45:00,
2013-04-22 22:51:00,44.3,0.0,30.34,SW,217,1.0,3.0,0,0.00,,CLR,0.00,VWS V13.01,2013-04-23 05:51:00,
2013-04-22 22:56:00,44.1,0.0,30.34,SW,217,0.0,3.0,0,0.00,,CLR,0.00,VWS V13.01,2013-04-23 05:56:00,
2013-04-22 23:01:00,43.9,0.0,30.34,SW,219,0.0,0.0,0,0.00,,CLR,0.00,VWS V13.01,2013-04-23 06:01:00,
2013-04-22 23:06:00,43.8,0.0,30.34,SW,219,0.0,0.0,0,0.00,,CLR,0.00,VWS V13.01,2013-04-23 06:06:00,
2013-04-22 23:11:00,43.6,0.0,30.34,SW,219,0.0,0.0,0,0.00,,CLR,0.00,VWS V13.01,2013-04-23 06:11:00,
2013-04-22 23:16:00,43.3,0.0,30.34,SW,219,0.0,0.0,0,0.00,,CLR,0.00,VWS V13.01,2013-04-23 06:16:00,
2013-04-22 23:21:00,43.1,0.0,30.34,SW,219,0.0,0.0,0,0.00,,CLR,0.00,VWS V13.01,2013-04-23 06:21:00,
2013-04-22 23:26:00,43.0,0.0,30.34,SW,219,0.0,0.0,0,0.00,,CLR,0.00,VWS V13.01,2013-04-23 06:26:00,
2013-04-22 23:31:00,42.9,0.0,30.34,SW,224,0.0,0.0,0,0.00,,CLR,0.00,VWS V13.01,2013-04-23 06:31:00,
2013-04-22 23:36:00,42.8,0.0,30.34,SW,224,0.0,0.0,0,0.00,,CLR,0.00,VWS V13.01,2013-04-23 06:36:00,
2013-04-22 23:41:00,42.8,0.0,30.34,SW,224,0.0,0.0,0,0.00,,CLR,0.00,VWS V13.01,2013-04-23 06:41:00,
2013-04-22 23:46:00,42.6,0.0,30.34,SW,224,0.0,0.0,0,0.00,,CLR,0.00,VWS V13.01,2013-04-23 06:46:00,
2013-04-22 23:51:00,42.4,0.0,30.34,SW,224,0.0,0.0,0,0.00,,CLR,0.00,VWS V13.01,2013-04-23 06:51:00,
2013-04-22 23:57:00,42.3,0.0,30.34,SW,224,0.0,0.0,0,0.00,,CLR,0.00,VWS V13.01,2013-04-23 06:57:00,